Regional Weather Roundup
Issued by NWS Sioux Falls, SD

Home | Current Version | Previous Version | Text Only | Print | Product List | Glossary Off
Versions: 1 2 3 4 5 6 7 8 9 10 11 12 13 14 15 16 17 18 19 20 21 22 23 24 25 26 27 28 29 30 31 32 33 34 35 36 37 38 39 40 41 42 43 44 45 46 47 48 49 50

000
ASUS43 KFSD 291602
RWRFSD

WEATHER ROUNDUP FOR SE SOUTH DAKOTA/SW MINNESOTA/NW IOWA
NATIONAL WEATHER SERVICE SIOUX FALLS SD
1100 AM CDT MON AUG 29 2016

NOTE: "FAIR" INDICATES FEW OR NO CLOUDS BELOW 12,000 FEET WITH NO
SIGNIFICANT WEATHER AND OR OBSTRUCTIONS TO VISIBILITY.


SDZ038>040-050-052>070-291700-
SOUTHEAST SOUTH DAKOTA

CITY           SKY/WX    TMP DP  RH WIND       PRES   REMARKS
CHAMBERLAIN    SUNNY     82  67  60 SW3       30.14S
HURON          SUNNY     81  67  62 W5        30.12R
MADISON        FAIR      77  73  88 S9        30.19R
MITCHELL       SUNNY     80  69  69 S7        30.15R
SIOUX FALLS    PTSUNNY   79  69  71 S5        30.19R
WINNER         FAIR      84  66  54 SW9       30.15R
YANKTON        CLOUDY    75  66  73 E7        30.16R
$$

MNZ071-072-080-081-089-090-097-098-291700-
SOUTHWEST MINNESOTA

CITY           SKY/WX    TMP DP  RH WIND       PRES   REMARKS
FAIRMONT       PTSUNNY   77  71  82 SE6       30.24R
JACKSON          N/A     77  66  69 S5        30.24S
LUVERNE        MOSUNNY   75  66  73 S6        30.22R
MARSHALL       MOSUNNY   74  68  81 E14       30.22R
MONTEVIDEO     SUNNY     77  70  78 S15G25    30.19F
REDWOOD FALLS  MOSUNNY   76  66  71 SE9       30.20F
TRACY          PTSUNNY   75  69  80 E9        30.23S
WINDOM         PTSUNNY   77  66  69 CALM      30.23R
$$

IAZ001>003-012>014-020>022-031-032-NEZ013-014-SDZ071-291700-
NORTHWEST IOWA

CITY           SKY/WX    TMP DP  RH WIND       PRES   REMARKS
CHEROKEE       CLOUDY    75  71  86 S5        30.23R
DENISON        MOSUNNY   73  70  88 CALM      30.20R
ESTHERVILLE    PTSUNNY   74  70  87 S6        30.24R
LE MARS        PTSUNNY   75  70  83 S7        30.22R
ORANGE CITY    CLOUDY    75  70  83 S7        30.22R
SHELDON        CLOUDY    75  72  88 S7        30.21R
SIOUX CITY     MOSUNNY   75  68  78 S7        30.21R
SPENCER        CLOUDY    78  69  73 SE5       30.23R
STORM LAKE     CLOUDY    73  70  88 CALM      30.24R
$$

ABBREVIATIONS USED IN REMARKS
   TC - TEMPERATURE IN CELSIUS
  WCI - WIND CHILL INDEX
   HX - HEAT INDEX
  VSB - VISIBILITY





USA.gov is the U.S. government's official web portal to all federal, state and local government web resources and services.